[[{"header":{"parameterUnit":"m.s-1","parameterCategory":1,"la1":30.2991,"la2":30.254,"lo1":-89.0895,"lo2":-89.0444,"dy":0.0017,"dx":0.0017,"nx":28,"ny":28,"refTime":"2024-04-10T03:00:00:Z","depth":0,"parameterNumber":2,"parameterNumberName":"U-component_of_WINDS"},"data":[0,0,0,0,0,0,0,0,0,0,0,0,0,0,0,0,0,0,0,0,0,0,0,0,0,0,0,0,0,0,0,0,0,0,0,0,0,0,0,0,0,0,0,0,0,0,0,0,0,0,0,0,0,0,0,0,0,0,-5.478,-5.4782,0,-5.4907,-5.4908,-5.491,-5.4916,-5.4915,-5.4913,-5.4912,-5.5041,-5.5046,-5.505,0,0,0,0,0,0,0,0,0,0,0,0,0,-5.4545,-5.455,-5.478,-5.4782,-5.4783,-5.4906,-5.4908,-5.491,-5.4917,-5.4915,-5.4913,-5.4911,-5.5039,-5.5045,-5.5051,0,0,0,0,0,0,0,0,0,0,0,0,0,-5.4657,-5.4551,-5.478,-5.4802,-5.4805,-5.4906,-5.4908,-5.491,-5.4917,-5.4915,-5.4913,-5.4911,-5.5037,-5.5044,-5.5051,-5.514,0,0,-5.5073,-5.5077,0,0,0,0,0,0,0,0,-5.4651,-5.4666,-5.4797,-5.48,-5.4804,-5.4894,-5.4873,-5.4987,-5.4917,-5.4874,-5.4912,-5.4909,-5.4994,-5.5004,-5.5033,-5.5146,-5.5151,-5.5074,-5.5078,-5.5081,-5.5084,0,0,0,0,0,0,0,-5.4643,-5.466,-5.483,-5.4799,-5.4803,-5.4805,-5.4819,-5.4894,-5.4945,-5.4878,-5.4879,-5.4894,-5.4995,-5.5026,-5.5036,-5.5153,-5.5074,-5.508,-5.5085,-5.5087,-5.5345,-5.5347,0,0,0,0,0,0,-5.4631,-5.4654,-5.4826,-5.4834,-5.472,-5.4811,-5.4826,-5.4867,-5.4944,-5.4953,-5.4895,-5.4893,-5.5015,-5.5027,-5.504,-5.5148,-5.5081,-5.5088,-5.5092,-5.5342,-5.5345,-5.5348,0,0,0,0,0,0,-5.4626,-5.4646,-5.4821,-5.4744,-5.4767,-5.4818,-5.4863,-5.4871,-5.4901,-5.4957,-5.4966,-5.4917,-5.5013,-5.503,-5.5115,-5.5152,-5.5091,-5.5098,-5.5339,-5.5343,-5.5347,-5.5364,0,0,0,0,0,0,-5.4619,-5.4644,-5.4678,-5.4745,-5.4771,-5.4893,-5.4866,-5.4875,-5.4914,-5.4912,-5.498,-5.4989,-5.5013,-5.5104,-5.5122,-5.5161,-5.5104,-5.5336,-5.5341,-5.5345,-5.536,-5.5367,-5.5374,0,0,0,0,0,-5.4611,-5.4678,-5.468,-5.4701,-5.4814,-5.4895,-5.491,-5.4936,-5.4917,-5.4951,-5.4987,-5.4987,-5.5146,-5.5113,-5.5133,-5.5175,-5.5334,-5.5339,-5.5345,-5.5357,-5.5366,-5.5374,0,0,0,0,0,0,-5.4614,-5.4687,-5.469,-5.4781,-5.4832,-5.4896,-5.494,-5.4945,-5.5003,-5.4999,-5.503,-5.5045,-5.5128,-5.5161,-5.5122,-5.5264,-5.5238,-5.5248,-5.5239,-5.5249,-5.5256,-5.5245,-5.511,0,0,0,0,0,-5.4625,-5.4685,-5.4746,-5.482,-5.4846,-5.4889,-5.4925,-5.4941,-5.4995,-5.5017,-5.5059,-5.5112,-5.5173,-5.5213,-5.5273,-5.5366,-5.538,-5.5404,-5.5411,-5.5417,-5.5424,-5.5475,-5.5486,-5.5367,-5.5366,-5.5366,0,0,-5.4649,-5.4696,-5.4732,-5.4822,-5.4864,-5.4925,-5.4907,-5.4973,-5.5018,-5.5027,-5.5109,-5.5142,-5.5203,-5.5291,-5.5333,-5.5321,-5.5461,-5.5424,-5.5428,-5.5433,-5.5482,-5.5493,-5.5503,-5.537,-5.537,-5.5369,0,0,-5.4723,-5.4766,-5.4832,-5.4874,-5.4937,-5.4966,-5.4982,-5.5046,-5.5068,-5.5151,-5.5159,-5.5214,-5.532,-5.5363,-5.5399,-5.5491,-5.5493,-5.551,-5.5546,-5.5595,-5.5604,-5.5613,-5.5644,-5.5655,-5.5518,-5.5518,-5.5518,0,-5.4744,-5.4837,-5.4865,-5.4931,-5.497,-5.4981,-5.5048,-5.5088,-5.5168,-5.5194,-5.5181,-5.5314,-5.5356,-5.5454,-5.5477,-5.5506,-5.5524,-5.5501,-5.5601,-5.5609,-5.5618,-5.5648,-5.566,-5.5519,-5.5519,-5.5519,-5.5519,0,-5.4859,-5.4924,-5.497,-5.5046,-5.5091,-5.5157,-5.5195,-5.5237,-5.525,-5.528,-5.5364,-5.5416,-5.5486,-5.5511,-5.5524,-5.5612,-5.5602,-5.5594,-5.5568,-5.563,-5.5659,-5.5671,-5.5521,-5.5521,-5.552,-5.552,0,0,-5.4936,-5.5029,-5.5045,-5.508,-5.5151,-5.5201,-5.5269,-5.5338,-5.5373,-5.5428,-5.5484,-5.5575,-5.5568,-5.5608,-5.5627,-5.567,-5.5738,-5.5657,-5.5659,-5.5669,-5.5837,-5.5841,-5.5854,-5.5741,-5.5744,-5.5746,-5.5831,0,-5.5017,-5.5136,-5.5164,-5.5266,-5.5325,-5.5338,-5.5396,-5.5447,-5.5477,-5.5532,-5.5566,-5.5629,-5.5616,-5.564,-5.5684,-5.5721,-5.5772,-5.5715,-5.5793,-5.5795,-5.5775,-5.5869,-5.5873,-5.5951,-5.5843,-5.5845,-5.5846,0,-5.5126,-5.5184,-5.5292,-5.5355,-5.5381,-5.5433,-5.5499,-5.5552,-5.5609,-5.5628,-5.5674,-5.5689,-5.5759,-5.5731,-5.5828,-5.5789,-5.5823,-5.5846,-5.585,-5.5856,-5.5823,-5.5876,-5.5977,-5.5988,-5.5865,-5.5863,-5.5862,0,-5.517,-5.5275,-5.5352,-5.5382,-5.5459,-5.5495,-5.5529,-5.5584,-5.5624,-5.5682,-5.5708,-5.5773,-5.5809,-5.5859,-5.5891,-5.5868,-5.5985,-5.596,-5.6002,-5.6001,-5.6024,-5.6021,-5.613,-5.6049,-5.6049,-5.6049,-5.6049,0,-5.5255,-5.532,-5.5373,-5.542,-5.5494,-5.5526,-5.5598,-5.5632,-5.5681,-5.5736,-5.5752,-5.5803,-5.5842,-5.5899,-5.5924,-5.6,-5.6017,-5.6033,-5.6039,-5.6031,-5.6028,-5.6051,-5.6046,-5.6052,-5.6051,-5.6051,-5.605,0,-5.5315,-5.5353,-5.5438,-5.5505,-5.5523,-5.5574,-5.563,-5.5677,-5.5709,-5.5777,-5.5796,-5.5845,-5.5912,-5.595,-5.6034,-5.6052,-5.6136,-5.614,-5.6116,-5.6118,-5.6157,-5.6152,-5.6282,-5.63,-5.621,-5.6211,-5.6211,0,-5.5366,-5.5416,-5.5488,-5.5526,-5.556,-5.5621,-5.5661,-5.5696,-5.5737,-5.5807,-5.5846,-5.5914,-5.597,-5.6078,-5.6121,-5.6186,-5.619,-5.6231,-5.62,-5.619,-5.6189,-5.6184,-5.6189,-5.6236,-5.6237,-5.6237,-5.6238,0,-5.5452,-5.5469,-5.5527,-5.5592,-5.564,-5.5693,-5.5745,-5.5775,-5.5818,-5.5865,-5.5934,-5.5977,-5.6064,-5.6131,-5.62,-5.6235,-5.6244,-5.6248,-5.6261,-5.6252,-5.6235,-5.6243,-5.6128,-5.6244,-5.6244,-5.6243,-5.6243,-5.6242,-5.5508,-5.5553,-5.5611,-5.5675,-5.5718,-5.5767,-5.5814,-5.5852,-5.591,-5.5982,-5.6,-5.6072,-5.6129,-5.6222,-5.6259,-5.6317,-5.6309,-5.6328,-5.6332,-5.6336,-5.6336,-5.6228,-5.633,-5.633,-5.6329,-5.6329,-5.6329,0,-5.5594,-5.5632,-5.5691,-5.5763,-5.5814,-5.5818,-5.5877,-5.5919,-5.5982,-5.6035,-5.609,-5.6169,-5.6235,-5.6284,-5.6352,-5.6388,-5.6394,-5.6404,-5.6401,-5.6409,-5.634,-5.6322,-5.6399,-5.6399,-5.6399,-5.6399,-5.6399,-5.6399,-5.5644,-5.572,-5.5744,-5.5841,-5.5879,-5.595,-5.5983,-5.6028,-5.607,-5.6158,-5.6212,-5.6244,-5.6296,-5.6367,-5.6427,-5.644,-5.6463,-5.6474,-5.6487,-5.6421,-5.6414,-5.6406,-5.6389,-5.6479,-5.6479,-5.655,-5.6551,-5.6551]},{"header":{"parameterUnit":"m.s-1","parameterCategory":1,"la1":30.2991,"la2":30.254,"lo1":-89.0895,"lo2":-89.0444,"dy":0.0017,"dx":0.0017,"nx":28,"ny":28,"refTime":"2024-04-10T03:00:00:Z","depth":0,"parameterNumber":3,"parameterNumberName":"V-component_of_WINDS"},"data":[0,0,0,0,0,0,0,0,0,0,0,0,0,0,0,0,0,0,0,0,0,0,0,0,0,0,0,0,0,0,0,0,0,0,0,0,0,0,0,0,0,0,0,0,0,0,0,0,0,0,0,0,0,0,0,0,0,0,5.2864,5.2864,0,5.2942,5.2943,5.2944,5.2931,5.293,5.2929,5.2927,5.3006,5.3009,5.3012,0,0,0,0,0,0,0,0,0,0,0,0,0,5.2701,5.2704,5.2863,5.2864,5.2865,5.2942,5.2943,5.2944,5.2932,5.293,5.2928,5.2927,5.3005,5.3009,5.3013,0,0,0,0,0,0,0,0,0,0,0,0,0,5.2775,5.2705,5.2863,5.2868,5.287,5.2942,5.2943,5.2945,5.2932,5.293,5.2928,5.2926,5.3003,5.3008,5.3013,5.3085,0,0,5.3029,5.3031,0,0,0,0,0,0,0,0,5.2771,5.2781,5.2867,5.2868,5.287,5.2925,5.2915,5.2991,5.2932,5.2908,5.2927,5.2925,5.298,5.2987,5.3006,5.3088,5.3092,5.3029,5.3032,5.3034,5.3036,0,0,0,0,0,0,0,5.2766,5.2777,5.2895,5.2868,5.287,5.2867,5.2875,5.2929,5.2955,5.291,5.2909,5.2919,5.2981,5.3002,5.3008,5.3093,5.3029,5.3033,5.3036,5.3038,5.324,5.3242,0,0,0,0,0,0,5.2759,5.2773,5.2892,5.2897,5.2814,5.2871,5.288,5.2909,5.2954,5.2959,5.2921,5.2918,5.2994,5.3002,5.3011,5.3099,5.3034,5.3039,5.3042,5.3237,5.324,5.3243,0,0,0,0,0,0,5.2756,5.277,5.2889,5.2835,5.285,5.2876,5.2909,5.2912,5.2933,5.2962,5.2966,5.2937,5.2993,5.3004,5.3067,5.3102,5.3041,5.3046,5.3235,5.3238,5.3242,5.3275,0,0,0,0,0,0,5.2751,5.2769,5.2796,5.2836,5.2853,5.2944,5.2911,5.2915,5.2942,5.2939,5.2979,5.2983,5.2992,5.306,5.3072,5.3107,5.305,5.3232,5.3236,5.324,5.3271,5.328,5.3287,0,0,0,0,0,5.2746,5.2802,5.2798,5.2812,5.2888,5.2946,5.2956,5.2965,5.2944,5.2972,5.2992,5.2982,5.3096,5.3066,5.308,5.3118,5.323,5.3235,5.324,5.3268,5.3278,5.3287,0,0,0,0,0,0,5.2764,5.2807,5.2803,5.2874,5.2907,5.2944,5.2979,5.2975,5.3014,5.301,5.3019,5.3029,5.3093,5.3111,5.3078,5.319,5.316,5.3168,5.3176,5.3186,5.3194,5.3188,5.3054,0,0,0,0,0,5.2777,5.2821,5.2856,5.2915,5.2932,5.2953,5.2979,5.2983,5.3017,5.3031,5.3055,5.3088,5.3131,5.3159,5.3201,5.3274,5.3283,5.3306,5.3314,5.332,5.3328,5.337,5.3381,5.326,5.326,5.326,0,0,5.2803,5.2832,5.2859,5.292,5.2946,5.2992,5.2965,5.3013,5.3048,5.3038,5.31,5.3119,5.3156,5.3226,5.3257,5.3243,5.3363,5.3327,5.3332,5.3336,5.3376,5.3388,5.3398,5.3264,5.3263,5.3263,0,0,5.2875,5.29,5.2953,5.298,5.3021,5.3035,5.3048,5.3086,5.3099,5.3161,5.3156,5.3196,5.327,5.3298,5.3322,5.3406,5.3399,5.3419,5.3459,5.35,5.351,5.3518,5.355,5.3561,5.3426,5.3426,5.3426,0,5.2902,5.2971,5.2981,5.3032,5.3059,5.3053,5.3108,5.3133,5.3185,5.3204,5.3187,5.3281,5.3306,5.3383,5.3404,5.3422,5.3438,5.3415,5.3508,5.3516,5.3525,5.3555,5.3567,5.3428,5.3428,5.3428,5.3427,0,5.3004,5.3052,5.309,5.3142,5.3173,5.3225,5.3243,5.3273,5.3276,5.3291,5.3356,5.3386,5.3434,5.3453,5.3454,5.353,5.352,5.3506,5.3475,5.3538,5.3567,5.3579,5.3431,5.3431,5.343,5.3429,0,0,5.3089,5.3146,5.316,5.3185,5.3229,5.3267,5.3319,5.3368,5.3394,5.343,5.3475,5.3539,5.3526,5.3553,5.3558,5.3594,5.3661,5.3575,5.3576,5.3592,5.3749,5.3761,5.3774,5.3657,5.3659,5.3661,5.3746,0,5.3166,5.3259,5.327,5.3353,5.3399,5.3395,5.3441,5.3473,5.349,5.3531,5.3548,5.3595,5.3573,5.359,5.3625,5.3646,5.3693,5.3639,5.3699,5.3701,5.3691,5.3789,5.3801,5.388,5.3757,5.3759,5.3761,0,5.3268,5.3309,5.3397,5.3438,5.3457,5.3498,5.3544,5.3583,5.362,5.363,5.3661,5.3662,5.3717,5.3684,5.376,5.3723,5.3748,5.3762,5.3766,5.3772,5.3736,5.38,5.3905,5.3918,5.3778,5.3777,5.3775,0,5.3324,5.34,5.3464,5.3484,5.3532,5.3562,5.3583,5.3618,5.3647,5.3688,5.3707,5.3752,5.3778,5.3813,5.3827,5.3801,5.3903,5.387,5.3913,5.3913,5.3935,5.3934,5.4048,5.3949,5.3949,5.3948,5.3948,0,5.341,5.3464,5.349,5.3529,5.359,5.3602,5.3662,5.3682,5.3714,5.3757,5.3756,5.3796,5.3811,5.3854,5.3865,5.3927,5.3938,5.3948,5.395,5.3949,5.3948,5.3966,5.3962,5.3952,5.3951,5.395,5.395,0,5.3483,5.3502,5.3571,5.3611,5.3623,5.3667,5.3701,5.3739,5.3756,5.381,5.3824,5.3849,5.39,5.3917,5.3978,5.3985,5.4058,5.4055,5.4046,5.4047,5.409,5.4086,5.4221,5.424,5.4127,5.4128,5.4128,0,5.3537,5.3579,5.3625,5.3654,5.3677,5.3724,5.3754,5.3768,5.3799,5.3846,5.3879,5.3929,5.3971,5.4052,5.4076,5.4123,5.4122,5.4166,5.4129,5.4127,5.4125,5.4123,5.4128,5.4173,5.4174,5.4175,5.4176,0,5.3632,5.364,5.3684,5.3732,5.3768,5.3806,5.3843,5.3867,5.3886,5.3922,5.3974,5.4006,5.407,5.412,5.4169,5.419,5.4187,5.4187,5.42,5.42,5.4194,5.42,5.4067,5.4184,5.4184,5.4183,5.4182,5.4182,5.3699,5.3737,5.3776,5.3825,5.3855,5.389,5.3928,5.395,5.3994,5.4047,5.4052,5.4109,5.4147,5.4212,5.4236,5.4281,5.4269,5.4287,5.4291,5.4296,5.43,5.4185,5.429,5.4289,5.4289,5.4289,5.4289,0,5.3796,5.3821,5.3866,5.3919,5.3958,5.3952,5.3992,5.4026,5.4076,5.4112,5.4153,5.4214,5.4264,5.4292,5.4342,5.4373,5.4372,5.4385,5.4384,5.439,5.4308,5.4293,5.4385,5.4385,5.4385,5.4385,5.4385,5.4385,5.3851,5.3916,5.3928,5.4008,5.4033,5.4089,5.4113,5.4146,5.4175,5.4243,5.4285,5.4303,5.4337,5.4389,5.4435,5.4442,5.4461,5.4475,5.4482,5.4405,5.4395,5.4386,5.4372,5.4479,5.4479,5.456,5.4561,5.4561]}]]